Time,TemperatureF,DewpointF,PressureIn,WindDirection,WindDirectionDegrees,WindSpeedMPH,WindSpeedGustMPH,Humidity,HourlyPrecipIn,Conditions,Clouds,dailyrainin,SolarRadiationWatts/m^2,SoftwareType,DateUTC
2013-09-18 00:22:00,47.0,46.0,-100.00,SE,131,6.0,10.0,97,0.01,,,0.76,0.000000,,2013-09-18 08:22:00,
2013-09-18 00:32:00,47.0,46.0,-100.00,SE,131,6.0,10.0,97,0.01,,,0.76,0.000000,,2013-09-18 08:32:00,
2013-09-18 00:42:00,47.0,46.0,-100.00,SE,131,6.0,10.0,97,0.01,,,0.76,0.000000,,2013-09-18 08:42:00,
2013-09-18 00:52:00,47.0,46.0,-100.00,SE,131,6.0,10.0,97,0.01,,,0.76,0.000000,,2013-09-18 08:52:00,
2013-09-18 01:22:00,47.0,46.0,-100.00,SSE,148,4.0,9.0,97,0.00,,,0.76,0.000000,,2013-09-18 09:22:00,
2013-09-18 01:33:00,47.0,46.0,-100.00,SSE,148,4.0,9.0,97,0.00,,,0.76,0.000000,,2013-09-18 09:33:00,
2013-09-18 01:43:00,47.0,46.0,-100.00,SSE,148,4.0,9.0,97,0.00,,,0.76,0.000000,,2013-09-18 09:43:00,
2013-09-18 01:53:00,47.0,46.0,-100.00,SSE,148,4.0,9.0,97,0.00,,,0.76,0.000000,,2013-09-18 09:53:00,
2013-09-18 02:23:00,47.0,46.0,-100.00,SE,136,4.0,9.0,97,0.00,,,0.76,0.000000,,2013-09-18 10:23:00,
2013-09-18 02:33:00,47.0,46.0,-100.00,SE,136,4.0,9.0,97,0.00,,,0.76,0.000000,,2013-09-18 10:33:00,
2013-09-18 02:42:00,47.0,46.0,-100.00,SE,136,4.0,9.0,97,0.00,,,0.76,0.000000,,2013-09-18 10:42:00,
2013-09-18 02:53:00,47.0,46.0,-100.00,SE,136,4.0,9.0,97,0.00,,,0.76,0.000000,,2013-09-18 10:53:00,
2013-09-18 03:22:00,47.0,46.0,-100.00,SSE,158,3.0,6.0,97,0.00,,,0.75,0.000000,,2013-09-18 11:22:00,
2013-09-18 03:33:00,47.0,46.0,-100.00,SSE,158,3.0,6.0,97,0.00,,,0.75,0.000000,,2013-09-18 11:33:00,
2013-09-18 03:42:00,47.0,46.0,-100.00,SSE,158,3.0,6.0,97,0.00,,,0.75,0.000000,,2013-09-18 11:42:00,
2013-09-18 03:52:00,47.0,46.0,-100.00,SSE,158,3.0,6.0,97,0.00,,,0.75,0.000000,,2013-09-18 11:52:00,
2013-09-18 04:22:00,47.0,46.0,-100.00,SSE,155,4.0,7.0,97,0.00,,,0.75,0.000000,,2013-09-18 12:22:00,
2013-09-18 04:32:00,47.0,46.0,-100.00,SSE,155,4.0,7.0,97,0.00,,,0.75,0.000000,,2013-09-18 12:32:00,
2013-09-18 04:42:00,47.0,46.0,-100.00,SSE,155,4.0,7.0,97,0.00,,,0.75,0.000000,,2013-09-18 12:42:00,
2013-09-18 04:52:00,47.0,46.0,-100.00,SSE,155,4.0,7.0,97,0.00,,,0.75,0.000000,,2013-09-18 12:52:00,
2013-09-18 20:25:00,51.0,48.0,-100.00,ENE,66,1.0,6.0,88,0.00,,,0.10,0.000000,,2013-09-19 04:25:00,
2013-09-18 20:34:00,51.0,48.0,-100.00,ENE,66,1.0,6.0,88,0.00,,,0.10,0.000000,,2013-09-19 04:34:00,
2013-09-18 20:43:00,51.0,48.0,-100.00,ENE,66,1.0,6.0,88,0.00,,,0.10,0.000000,,2013-09-19 04:43:00,
2013-09-18 20:54:00,51.0,48.0,-100.00,ENE,66,1.0,6.0,88,0.00,,,0.10,0.000000,,2013-09-19 04:54:00,
2013-09-18 21:23:00,49.0,47.0,-100.00,West,270,1.0,3.0,92,0.00,,,0.06,0.000000,,2013-09-19 05:23:00,
2013-09-18 21:34:00,49.0,47.0,-100.00,West,270,1.0,3.0,92,0.00,,,0.06,0.000000,,2013-09-19 05:34:00,
2013-09-18 21:43:00,49.0,47.0,-100.00,West,270,1.0,3.0,92,0.00,,,0.06,0.000000,,2013-09-19 05:43:00,
2013-09-18 21:52:00,49.0,47.0,-100.00,West,270,1.0,3.0,92,0.00,,,0.06,0.000000,,2013-09-19 05:52:00,
2013-09-18 22:22:00,49.0,48.0,-100.00,NNW,343,1.0,4.0,95,0.00,,,0.05,0.000000,,2013-09-19 06:22:00,
2013-09-18 22:32:00,49.0,48.0,-100.00,NNW,343,1.0,4.0,95,0.00,,,0.05,0.000000,,2013-09-19 06:32:00,
2013-09-18 22:43:00,49.0,48.0,-100.00,NNW,343,1.0,4.0,95,0.00,,,0.05,0.000000,,2013-09-19 06:43:00,
2013-09-18 22:52:00,49.0,48.0,-100.00,NNW,343,1.0,4.0,95,0.00,,,0.05,0.000000,,2013-09-19 06:52:00,
2013-09-18 23:21:00,49.0,48.0,-100.00,NNE,13,3.0,4.0,96,0.02,,,0.05,0.000000,,2013-09-19 07:21:00,
2013-09-18 23:33:00,49.0,48.0,-100.00,NNE,13,3.0,4.0,96,0.02,,,0.05,0.000000,,2013-09-19 07:33:00,
2013-09-18 23:42:00,49.0,48.0,-100.00,NNE,13,3.0,4.0,96,0.02,,,0.05,0.000000,,2013-09-19 07:42:00,
2013-09-18 23:52:00,49.0,48.0,-100.00,NNE,13,3.0,4.0,96,0.02,,,0.05,0.000000,,2013-09-19 07:52:00,